Location: Krasnoyarskiy Pitomnik
(51.1333°N, 71.6167°E)
Time: 14:48:38
(UTC+00:00)

BlueWalker 3 - Visible Passes

Search period start: 27 February 2024 00:00
Search period end: 08 March 2024 00:00
Orbit: 486 x 500 km, 53.2° (Epoch: 26 February)

Date Brightness Start Highest point End Pass type
(mag) Time Alt. Az. Time Alt. Az. Time Alt. Az.
27 Feb 1.9 14:27:21 10° WNW 14:31:08 71° NNE 14:32:22 39° E visible
27 Feb 4.6 16:05:44 10° WNW 16:06:51 18° W 16:06:51 18° W visible
28 Feb 1.9 14:03:29 10° WNW 14:07:16 70° N 14:09:33 22° E visible
28 Feb 3.7 15:41:52 10° WNW 15:44:02 29° W 15:44:02 29° W visible
29 Feb 2.0 13:39:36 10° WNW 13:43:24 69° N 13:46:45 13° E visible
29 Feb 2.7 15:17:59 10° WNW 15:21:14 44° SW 15:21:14 44° SW visible
01 Mar 2.5 14:54:06 10° WNW 14:57:45 47° SSW 14:58:28 41° S visible
02 Mar 2.5 14:30:11 10° WNW 14:33:51 49° SSW 14:35:45 24° SSE visible
02 Mar 4.9 16:10:07 10° WSW 16:10:14 10° WSW 16:10:14 10° WSW visible
03 Mar 2.6 14:06:16 10° WNW 14:09:55 50° SSW 14:13:06 13° SE visible
03 Mar 4.6 15:46:03 10° WSW 15:47:30 12° SW 15:47:35 12° SW visible
04 Mar 2.6 13:42:18 10° WNW 13:46:00 51° SSW 13:49:40 10° SE visible
04 Mar 4.6 15:21:59 10° WSW 15:23:35 12° SW 15:25:01 10° SSW visible
05 Mar 4.6 14:57:56 10° WSW 14:59:38 13° SW 15:01:21 10° SSW visible
06 Mar 4.7 14:33:52 10° WSW 14:35:42 13° SW 14:37:31 10° SSW visible
07 Mar 4.7 14:09:46 10° WSW 14:11:43 14° SW 14:13:39 10° SSW visible
